| time (UTC) | temp F | wind direction | speed knots | gust knots | rain 1hr in | rain 24hr in | rain mn in | humidity % | barometer mb |
| 20260508134503 | 58 | 124 | 0.0 | 0.0 | 0.00 | 0.00 | 0.00 | 51 | 1010.8 |
| 20260508133119 | 57 | 125 | 0.0 | 0.0 | 0.00 | 0.00 | 0.00 | 53 | 1010.7 |
| 20260508131554 | 56 | 124 | 0.0 | 0.0 | 0.00 | 0.00 | 0.00 | 53 | 1010.6 |
| 20260508130051 | 56 | 123 | 0.0 | 0.0 | 0.00 | 0.00 | 0.00 | 53 | 1010.6 |
| 20260508124549 | 55 | 123 | 0.0 | 0.0 | 0.00 | 0.00 | 0.00 | 53 | 1010.5 |
| 20260508123058 | 55 | 124 | 0.0 | 0.0 | 0.00 | 0.00 | 0.00 | 52 | 1010.4 |
| 20260508121546 | 56 | 123 | 0.0 | 0.0 | 0.00 | 0.00 | 0.00 | 51 | 1010.4 |
| 20260508120045 | 56 | 123 | 0.0 | 0.0 | 0.00 | 0.00 | 0.00 | 50 | 1010.4 |
| 20260508114542 | 56 | 123 | 0.0 | 0.0 | 0.00 | 0.00 | 0.00 | 49 | 1010.3 |
| 20260508113055 | 56 | 123 | 0.0 | 2.6 | 0.00 | 0.00 | 0.00 | 48 | 1010.3 |
| 20260508111543 | 57 | 123 | 0.9 | 2.6 | 0.00 | 0.00 | 0.00 | 47 | 1010.1 |
| 20260508110048 | 57 | 124 | 0.0 | 2.6 | 0.00 | 0.00 | 0.00 | 45 | 1010.0 |
| 20260508104537 | 57 | 124 | 0.0 | 4.3 | 0.00 | 0.00 | 0.00 | 44 | 1010.0 |
| 20260508103032 | 58 | 130 | 0.9 | 2.6 | 0.00 | 0.00 | 0.00 | 43 | 1009.9 |
| 20260508101533 | 58 | 125 | 0.0 | 2.6 | 0.00 | 0.00 | 0.00 | 41 | 1009.9 |
| 20260508100030 | 58 | 125 | 0.0 | 5.2 | 0.00 | 0.00 | 0.00 | 39 | 1009.9 |
| 20260508094526 | 58 | 127 | 0.9 | 6.1 | 0.00 | 0.00 | 0.00 | 37 | 1009.8 |
| 20260508093029 | 59 | 125 | 0.9 | 3.5 | 0.00 | 0.00 | 0.00 | 36 | 1009.7 |
| 20260508091523 | 59 | 134 | 0.9 | 4.3 | 0.00 | 0.00 | 0.00 | 34 | 1009.8 |
| 20260508090026 | 60 | 123 | 0.9 | 3.5 | 0.00 | 0.00 | 0.00 | 32 | 1009.8 |
| 20260508084519 | 61 | 136 | 0.9 | 7.0 | 0.00 | 0.00 | 0.00 | 29 | 1009.8 |
| 20260508083016 | 61 | 128 | 0.9 | 2.6 | 0.00 | 0.00 | 0.00 | 28 | 1009.7 |
| 20260508081514 | 62 | 131 | 0.9 | 3.5 | 0.00 | 0.00 | 0.00 | 28 | 1009.7 |
| 20260508080015 | 62 | 133 | 0.0 | 0.9 | 0.00 | 0.00 | 0.00 | 29 | 1009.7 |
| 20260508074518 | 62 | 135 | 0.0 | 0.0 | 0.00 | 0.00 | 0.00 | 31 | 1009.7 |
| 20260508073006 | 63 | 135 | 0.0 | 0.0 | 0.00 | 0.00 | 0.00 | 30 | 1009.7 |
| 20260508071505 | 64 | 135 | 0.0 | 0.0 | 0.00 | 0.00 | 0.00 | 30 | 1009.5 |
| 20260508070002 | 64 | 135 | 0.0 | 0.0 | 0.00 | 0.00 | 0.00 | 30 | 1009.4 |
| 20260508064501 | 65 | 135 | 0.0 | 1.7 | 0.00 | 0.00 | 0.00 | 28 | 1009.4 |
| 20260508063100 | 66 | 144 | 0.9 | 7.8 | 0.00 | 0.00 | 0.00 | 28 | 1009.4 |
| 20260508061559 | 66 | 141 | 0.9 | 7.8 | 0.00 | 0.00 | 0.00 | 29 | 1009.3 |
| 20260508060058 | 67 | 112 | 0.9 | 2.6 | 0.00 | 0.00 | 0.00 | 32 | 1009.1 |
| 20260508054557 | 67 | 112 | 0.0 | 1.7 | 0.00 | 0.00 | 0.00 | 34 | 1009.2 |
| 20260508053119 | 67 | 112 | 0.0 | 1.7 | 0.00 | 0.00 | 0.00 | 34 | 1009.1 |
| 20260508051556 | 68 | 112 | 0.0 | 0.0 | 0.00 | 0.00 | 0.00 | 36 | 1009.0 |
| 20260508050055 | 68 | 112 | 0.0 | 0.0 | 0.00 | 0.00 | 0.00 | 38 | 1009.0 |
| 20260508044557 | 68 | 112 | 0.0 | 0.0 | 0.00 | 0.00 | 0.00 | 40 | 1008.9 |
| 20260508043103 | 68 | 112 | 0.0 | 0.0 | 0.00 | 0.00 | 0.00 | 39 | 1008.9 |
| 20260508041615 | 69 | 112 | 0.0 | 0.0 | 0.00 | 0.00 | 0.00 | 37 | 1009.0 |
| 20260508040110 | 71 | 112 | 0.0 | 0.0 | 0.00 | 0.00 | 0.00 | 35 | 1008.9 |
| 20260508034553 | 72 | 112 | 0.0 | 0.0 | 0.00 | 0.00 | 0.00 | 32 | 1008.7 |
| 20260508033052 | 72 | 112 | 0.0 | 0.0 | 0.00 | 0.00 | 0.00 | 29 | 1008.7 |
| 20260508031554 | 73 | 112 | 0.0 | 1.7 | 0.00 | 0.00 | 0.00 | 27 | 1008.7 |
| 20260508030052 | 74 | 112 | 0.0 | 2.6 | 0.00 | 0.00 | 0.00 | 26 | 1008.7 |
| 20260508024603 | 75 | 113 | 0.0 | 1.7 | 0.00 | 0.00 | 0.00 | 25 | 1008.7 |
| 20260508023051 | 76 | 112 | 0.0 | 1.7 | 0.00 | 0.00 | 0.00 | 25 | 1008.6 |
| 20260508021548 | 77 | 112 | 0.9 | 3.5 | 0.00 | 0.00 | 0.00 | 24 | 1008.6 |
| 20260508020050 | 79 | 118 | 0.9 | 3.5 | 0.00 | 0.00 | 0.00 | 23 | 1008.7 |
| 20260508014546 | 80 | 118 | 0.0 | 3.5 | 0.00 | 0.00 | 0.00 | 23 | 1008.8 |
| 20260508013044 | 80 | 119 | 0.0 | 0.0 | 0.00 | 0.00 | 0.00 | 22 | 1008.7 |
| 20260508011551 | 81 | 119 | 0.0 | 0.0 | 0.00 | 0.00 | 0.00 | 22 | 1008.8 |
| 20260508010040 | 81 | 120 | 0.0 | 1.7 | 0.00 | 0.00 | 0.00 | 23 | 1008.9 |
| 20260508004542 | 81 | 118 | 0.0 | 3.5 | 0.00 | 0.00 | 0.00 | 22 | 1009.1 |
| 20260508003039 | 82 | 120 | 0.0 | 2.6 | 0.00 | 0.00 | 0.00 | 23 | 1009.1 |
| 20260508001541 | 82 | 123 | 0.9 | 1.7 | 0.00 | 0.00 | 0.00 | 24 | 1009.2 |
| 20260508000037 | 82 | 105 | 0.0 | 0.0 | 0.00 | 0.00 | 0.00 | 23 | 1009.1 |
| 20260507234536 | 82 | 122 | 0.9 | 7.0 | 0.00 | 0.00 | 0.00 | 22 | 1009.2 |
| 20260507233053 | 82 | 126 | 0.0 | 3.5 | 0.00 | 0.00 | 0.00 | 25 | 1009.3 |
| 20260507231537 | 82 | 181 | 0.9 | 4.3 | 0.00 | 0.00 | 0.00 | 23 | 1009.5 |
| 20260507230030 | 83 | 104 | 0.9 | 2.6 | 0.00 | 0.00 | 0.00 | 24 | 1009.7 |
| 20260507224528 | 82 | 118 | 0.9 | 5.2 | 0.00 | 0.00 | 0.00 | 26 | 1010.0 |
| 20260507223022 | 81 | 107 | 0.0 | 2.6 | 0.00 | 0.00 | 0.00 | 26 | 1010.3 |
| 20260507221524 | 79 | 91 | 0.9 | 3.5 | 0.00 | 0.00 | 0.00 | 27 | 1010.3 |
| 20260507220019 | 79 | 245 | 0.9 | 3.5 | 0.00 | 0.00 | 0.00 | 27 | 1010.6 |
| 20260507214517 | 80 | 106 | 0.0 | 3.5 | 0.00 | 0.00 | 0.00 | 26 | 1010.9 |
| 20260507213021 | 78 | 117 | 0.9 | 3.5 | 0.00 | 0.00 | 0.00 | 27 | 1011.0 |
| 20260507211516 | 79 | 131 | 0.0 | 1.7 | 0.00 | 0.00 | 0.00 | 27 | 1011.2 |
| 20260507210014 | 80 | 108 | 1.7 | 6.1 | 0.00 | 0.00 | 0.00 | 27 | 1011.3 |
| 20260507204514 | 78 | 108 | 0.9 | 7.8 | 0.00 | 0.00 | 0.00 | 28 | 1011.5 |
| 20260507203009 | 78 | 218 | 0.9 | 4.3 | 0.00 | 0.00 | 0.00 | 28 | 1011.6 |
| 20260507201513 | 77 | 96 | 0.0 | 9.6 | 0.00 | 0.00 | 0.00 | 30 | 1011.7 |
| 20260507200011 | 76 | 192 | 0.9 | 6.1 | 0.00 | 0.00 | 0.00 | 31 | 1011.8 |
| 20260507194505 | 77 | 114 | 0.9 | 7.8 | 0.00 | 0.00 | 0.00 | 31 | 1012.0 |
| 20260507193100 | 75 | 118 | 1.7 | 7.8 | 0.00 | 0.00 | 0.00 | 34 | 1012.1 |
| 20260507191558 | 74 | 177 | 0.0 | 5.2 | 0.00 | 0.00 | 0.00 | 35 | 1012.1 |
| 20260507190057 | 74 | 189 | 1.7 | 5.2 | 0.00 | 0.00 | 0.00 | 36 | 1012.2 |
| 20260507184552 | 73 | 146 | 0.0 | 3.5 | 0.00 | 0.00 | 0.00 | 38 | 1012.3 |
| 20260507183049 | 72 | 218 | 0.9 | 6.1 | 0.00 | 0.00 | 0.00 | 40 | 1012.4 |
| 20260507181553 | 72 | 112 | 1.7 | 7.0 | 0.00 | 0.00 | 0.00 | 40 | 1012.3 |
| 20260507180043 | 72 | 181 | 0.9 | 5.2 | 0.00 | 0.00 | 0.00 | 40 | 1012.4 |
| 20260507174549 | 71 | 268 | 0.0 | 0.0 | 0.00 | 0.00 | 0.00 | 39 | 1012.5 |
| 20260507173052 | 70 | 274 | 0.0 | 0.9 | 0.00 | 0.00 | 0.00 | 40 | 1012.6 |
| 20260507171541 | 70 | 301 | 0.0 | 0.0 | 0.00 | 0.00 | 0.00 | 39 | 1012.7 |
| 20260507170026 | 69 | 305 | 0.0 | 0.0 | 0.00 | 0.00 | 0.00 | 42 | 1012.8 |
| 20260507164529 | 69 | 305 | 0.0 | 0.0 | 0.00 | 0.00 | 0.00 | 44 | 1012.9 |
| 20260507163019 | 67 | 305 | 0.0 | 0.0 | 0.00 | 0.00 | 0.00 | 46 | 1012.8 |
| 20260507161516 | 66 | 305 | 0.0 | 0.0 | 0.00 | 0.00 | 0.00 | 47 | 1012.8 |
| 20260507160014 | 65 | 307 | 0.0 | 0.0 | 0.00 | 0.00 | 0.00 | 50 | 1012.9 |
| 20260507154506 | 65 | 306 | 0.0 | 0.0 | 0.00 | 0.00 | 0.00 | 52 | 1012.8 |
| 20260507153002 | 63 | 310 | 0.0 | 0.0 | 0.00 | 0.00 | 0.00 | 57 | 1012.7 |
| 20260507151601 | 62 | 308 | 0.0 | 0.0 | 0.00 | 0.00 | 0.00 | 60 | 1012.8 |
| 20260507150100 | 62 | 359 | 0.0 | 0.0 | 0.00 | 0.00 | 0.00 | 63 | 1012.6 |
| 20260507144554 | 61 | 309 | 0.0 | 0.0 | 0.00 | 0.00 | 0.00 | 64 | 1012.6 |
| 20260507143047 | 60 | 309 | 0.0 | 0.0 | 0.00 | 0.00 | 0.00 | 64 | 1012.5 |
| 20260507141551 | 59 | 308 | 0.0 | 0.0 | 0.00 | 0.00 | 0.00 | 67 | 1012.5 |
| 20260507140039 | 57 | 308 | 0.0 | 0.0 | 0.00 | 0.00 | 0.00 | 70 | 1012.3 |